| time (UTC) | temp C | wind direction | speed KPH | gust KPH | rain 1hr cm | rain 24hr cm | rain mn cm | humidity % | barometer mb |
| 20260505041625 | 17 | 114 | 4.8 | 4.8 | 0.00 | 0.00 | 0.00 | 51 | 1007.0 |
| 20260505041123 | 17 | 158 | 3.2 | 3.2 | 0.00 | 0.00 | 0.00 | 51 | 1006.9 |
| 20260505040619 | 17 | 195 | 6.4 | 8.0 | 0.00 | 0.00 | 0.00 | 51 | 1007.1 |
| 20260505040117 | 17 | 188 | 11.3 | 12.9 | 0.00 | 0.00 | 0.00 | 51 | 1007.1 |
| 20260505035613 | 17 | 178 | 4.8 | 4.8 | 0.00 | 0.00 | 0.00 | 50 | 1007.1 |
| 20260505035109 | 17 | 140 | 4.8 | 4.8 | 0.00 | 0.00 | 0.00 | 50 | 1007.1 |
| 20260505034606 | 17 | 153 | 3.2 | 3.2 | 0.00 | 0.00 | 0.00 | 50 | 1007.1 |
| 20260505034103 | 17 | 146 | 4.8 | 8.0 | 0.00 | 0.00 | 0.00 | 50 | 1007.0 |
| 20260505033559 | 17 | 165 | 1.6 | 3.2 | 0.00 | 0.00 | 0.00 | 50 | 1007.2 |
| 20260505033058 | 17 | 194 | 4.8 | 8.0 | 0.00 | 0.00 | 0.00 | 49 | 1007.1 |
| 20260505032555 | 17 | 160 | 4.8 | 9.7 | 0.00 | 0.00 | 0.00 | 50 | 1006.9 |
| 20260505032051 | 17 | 163 | 3.2 | 3.2 | 0.00 | 0.00 | 0.00 | 50 | 1007.2 |
| 20260505031549 | 17 | 155 | 3.2 | 3.2 | 0.00 | 0.00 | 0.00 | 49 | 1007.2 |
| 20260505031045 | 17 | 180 | 1.6 | 1.6 | 0.00 | 0.00 | 0.00 | 49 | 1007.0 |
| 20260505030543 | 17 | 144 | 6.4 | 9.7 | 0.00 | 0.00 | 0.00 | 49 | 1007.1 |
| 20260505030038 | 17 | 203 | 6.4 | 9.7 | 0.00 | 0.00 | 0.00 | 48 | 1007.1 |
| 20260505025534 | 17 | 186 | 1.6 | 1.6 | 0.00 | 0.00 | 0.00 | 49 | 1007.1 |
| 20260505025033 | 17 | 140 | 0.0 | 1.6 | 0.00 | 0.00 | 0.00 | 49 | 1007.3 |
| 20260505024530 | 17 | 162 | 6.4 | 8.0 | 0.00 | 0.00 | 0.00 | 48 | 1007.4 |
| 20260505024027 | 17 | 157 | 1.6 | 1.6 | 0.00 | 0.00 | 0.00 | 48 | 1007.2 |
| 20260505023524 | 17 | 165 | 6.4 | 11.3 | 0.00 | 0.00 | 0.00 | 48 | 1007.1 |
| 20260505023022 | 17 | 154 | 3.2 | 3.2 | 0.00 | 0.00 | 0.00 | 48 | 1007.2 |
| 20260505022519 | 17 | 170 | 4.8 | 4.8 | 0.00 | 0.00 | 0.00 | 48 | 1007.5 |
| 20260505022016 | 17 | 173 | 8.0 | 9.7 | 0.00 | 0.00 | 0.00 | 47 | 1007.2 |
| 20260505021513 | 17 | 137 | 4.8 | 4.8 | 0.00 | 0.00 | 0.00 | 47 | 1007.0 |
| 20260505021009 | 17 | 170 | 6.4 | 9.7 | 0.00 | 0.00 | 0.00 | 47 | 1007.3 |
| 20260505020503 | 17 | 162 | 3.2 | 3.2 | 0.00 | 0.00 | 0.00 | 47 | 1007.2 |
| 20260505020000 | 17 | 97 | 4.8 | 9.7 | 0.00 | 0.00 | 0.00 | 47 | 1007.2 |
| 20260505015458 | 17 | 165 | 3.2 | 3.2 | 0.00 | 0.00 | 0.00 | 47 | 1007.2 |
| 20260505014955 | 17 | 164 | 0.0 | 1.6 | 0.00 | 0.00 | 0.00 | 47 | 1007.4 |
| 20260505014452 | 18 | 157 | 4.8 | 8.0 | 0.00 | 0.00 | 0.00 | 46 | 1007.2 |
| 20260505013949 | 17 | 140 | 3.2 | 3.2 | 0.00 | 0.00 | 0.00 | 46 | 1007.1 |
| 20260505013446 | 18 | 129 | 3.2 | 3.2 | 0.00 | 0.00 | 0.00 | 46 | 1007.0 |
| 20260505012943 | 18 | 152 | 4.8 | 4.8 | 0.00 | 0.00 | 0.00 | 45 | 1007.3 |
| 20260505012441 | 18 | 182 | 3.2 | 3.2 | 0.00 | 0.00 | 0.00 | 46 | 1007.0 |
| 20260505011938 | 18 | 137 | 4.8 | 4.8 | 0.00 | 0.00 | 0.00 | 45 | 1007.1 |
| 20260505011433 | 18 | 144 | 3.2 | 4.8 | 0.00 | 0.00 | 0.00 | 46 | 1007.2 |
| 20260505010930 | 18 | 121 | 4.8 | 4.8 | 0.00 | 0.00 | 0.00 | 45 | 1006.9 |
| 20260505010426 | 18 | 145 | 8.0 | 12.9 | 0.00 | 0.00 | 0.00 | 45 | 1006.9 |
| 20260505005922 | 18 | 108 | 3.2 | 3.2 | 0.00 | 0.00 | 0.00 | 45 | 1006.9 |
| 20260505005420 | 18 | 141 | 3.2 | 4.8 | 0.00 | 0.00 | 0.00 | 44 | 1006.7 |
| 20260505004917 | 18 | 172 | 6.4 | 9.7 | 0.00 | 0.00 | 0.00 | 44 | 1006.6 |
| 20260505004413 | 18 | 153 | 4.8 | 4.8 | 0.00 | 0.00 | 0.00 | 44 | 1006.9 |
| 20260505003910 | 18 | 117 | 4.8 | 4.8 | 0.00 | 0.00 | 0.00 | 44 | 1006.4 |
| 20260505003407 | 19 | 133 | 4.8 | 8.0 | 0.00 | 0.00 | 0.00 | 43 | 1006.7 |
| 20260505002904 | 19 | 191 | 8.0 | 11.3 | 0.00 | 0.00 | 0.00 | 42 | 1006.7 |
| 20260505002400 | 19 | 161 | 4.8 | 4.8 | 0.00 | 0.00 | 0.00 | 43 | 1006.4 |
| 20260505001859 | 19 | 177 | 8.0 | 11.3 | 0.00 | 0.00 | 0.00 | 42 | 1006.3 |
| 20260505001356 | 19 | 170 | 4.8 | 8.0 | 0.00 | 0.00 | 0.00 | 42 | 1006.3 |
| 20260505000853 | 19 | 163 | 3.2 | 3.2 | 0.00 | 0.00 | 0.00 | 42 | 1006.3 |
| 20260505000351 | 20 | 160 | 0.0 | 1.6 | 0.00 | 0.00 | 0.00 | 42 | 1006.4 |
| 20260504235847 | 20 | 175 | 9.7 | 14.5 | 0.00 | 0.00 | 0.00 | 41 | 1006.4 |
| 20260504235344 | 20 | 151 | 9.7 | 12.9 | 0.00 | 0.00 | 0.00 | 41 | 1006.4 |
| 20260504234840 | 20 | 168 | 3.2 | 4.8 | 0.00 | 0.00 | 0.00 | 41 | 1006.0 |
| 20260504234338 | 20 | 173 | 8.0 | 11.3 | 0.00 | 0.00 | 0.00 | 40 | 1006.3 |
| 20260504233835 | 20 | 147 | 3.2 | 3.2 | 0.00 | 0.00 | 0.00 | 41 | 1005.9 |
| 20260504233330 | 20 | 159 | 3.2 | 3.2 | 0.00 | 0.00 | 0.00 | 41 | 1005.8 |
| 20260504232827 | 20 | 144 | 8.0 | 9.7 | 0.00 | 0.00 | 0.00 | 39 | 1005.9 |
| 20260504232324 | 20 | 145 | 6.4 | 9.7 | 0.00 | 0.00 | 0.00 | 40 | 1005.8 |
| 20260504231821 | 20 | 174 | 8.0 | 9.7 | 0.00 | 0.00 | 0.00 | 39 | 1006.0 |
| 20260504231318 | 21 | 184 | 6.4 | 8.0 | 0.00 | 0.00 | 0.00 | 38 | 1005.8 |
| 20260504230814 | 21 | 178 | 11.3 | 12.9 | 0.00 | 0.00 | 0.00 | 38 | 1005.7 |
| 20260504230312 | 21 | 169 | 4.8 | 8.0 | 0.00 | 0.00 | 0.00 | 37 | 1005.9 |
| 20260504225811 | 21 | 173 | 9.7 | 14.5 | 0.00 | 0.00 | 0.00 | 36 | 1005.9 |
| 20260504225306 | 22 | 243 | 4.8 | 9.7 | 0.00 | 0.00 | 0.00 | 34 | 1005.9 |
| 20260504224804 | 22 | 142 | 3.2 | 4.8 | 0.00 | 0.00 | 0.00 | 32 | 1005.7 |
| 20260504224301 | 22 | 153 | 9.7 | 12.9 | 0.00 | 0.00 | 0.00 | 32 | 1005.7 |
| 20260504223757 | 22 | 185 | 1.6 | 1.6 | 0.00 | 0.00 | 0.00 | 33 | 1005.7 |
| 20260504223253 | 22 | 235 | 8.0 | 11.3 | 0.00 | 0.00 | 0.00 | 31 | 1006.0 |
| 20260504222750 | 22 | 207 | 1.6 | 3.2 | 0.00 | 0.00 | 0.00 | 32 | 1006.0 |
| 20260504222246 | 22 | 228 | 4.8 | 8.0 | 0.00 | 0.00 | 0.00 | 32 | 1005.9 |
| 20260504221744 | 22 | 186 | 3.2 | 3.2 | 0.00 | 0.00 | 0.00 | 33 | 1005.9 |
| 20260504221241 | 22 | 147 | 3.2 | 4.8 | 0.00 | 0.00 | 0.00 | 34 | 1005.7 |
| 20260504220738 | 22 | 177 | 1.6 | 3.2 | 0.00 | 0.00 | 0.00 | 32 | 1005.8 |
| 20260504220235 | 22 | 210 | 3.2 | 3.2 | 0.00 | 0.00 | 0.00 | 32 | 1005.9 |
| 20260504215732 | 22 | 203 | 4.8 | 4.8 | 0.00 | 0.00 | 0.00 | 33 | 1005.9 |
| 20260504215229 | 22 | 111 | 17.7 | 20.9 | 0.00 | 0.00 | 0.00 | 33 | 1005.8 |
| 20260504214725 | 22 | 189 | 3.2 | 3.2 | 0.00 | 0.00 | 0.00 | 34 | 1005.9 |
| 20260504214221 | 22 | 128 | 4.8 | 8.0 | 0.00 | 0.00 | 0.00 | 33 | 1005.8 |
| 20260504213718 | 22 | 218 | 9.7 | 12.9 | 0.00 | 0.00 | 0.00 | 33 | 1006.0 |
| 20260504213215 | 22 | 143 | 6.4 | 14.5 | 0.00 | 0.00 | 0.00 | 35 | 1006.0 |
| 20260504212712 | 21 | 213 | 6.4 | 8.0 | 0.00 | 0.00 | 0.00 | 33 | 1006.0 |
| 20260504212208 | 21 | 245 | 3.2 | 3.2 | 0.00 | 0.00 | 0.00 | 37 | 1006.0 |
| 20260504211706 | 21 | 186 | 8.0 | 9.7 | 0.00 | 0.00 | 0.00 | 35 | 1005.8 |
| 20260504211201 | 21 | 248 | 8.0 | 9.7 | 0.00 | 0.00 | 0.00 | 36 | 1006.1 |
| 20260504210654 | 21 | 205 | 6.4 | 8.0 | 0.00 | 0.00 | 0.00 | 35 | 1006.1 |
| 20260504210150 | 22 | 215 | 6.4 | 9.7 | 0.00 | 0.00 | 0.00 | 35 | 1006.2 |
| 20260504205648 | 22 | 193 | 6.4 | 8.0 | 0.00 | 0.00 | 0.00 | 35 | 1006.2 |
| 20260504205145 | 21 | 203 | 6.4 | 8.0 | 0.00 | 0.00 | 0.00 | 36 | 1006.2 |
| 20260504204643 | 21 | 246 | 11.3 | 12.9 | 0.00 | 0.00 | 0.00 | 35 | 1006.2 |
| 20260504204142 | 21 | 210 | 6.4 | 9.7 | 0.00 | 0.00 | 0.00 | 37 | 1006.6 |
| 20260504203640 | 21 | 199 | 9.7 | 12.9 | 0.00 | 0.00 | 0.00 | 38 | 1006.4 |
| 20260504203138 | 21 | 222 | 11.3 | 17.7 | 0.00 | 0.00 | 0.00 | 35 | 1006.4 |
| 20260504202637 | 21 | 225 | 8.0 | 11.3 | 0.00 | 0.00 | 0.00 | 35 | 1006.7 |
| 20260504202135 | 21 | 208 | 4.8 | 4.8 | 0.00 | 0.00 | 0.00 | 37 | 1006.8 |
| 20260504201631 | 21 | 174 | 6.4 | 11.3 | 0.00 | 0.00 | 0.00 | 36 | 1006.7 |
| 20260504201129 | 21 | 178 | 8.0 | 9.7 | 0.00 | 0.00 | 0.00 | 36 | 1006.8 |
| 20260504200626 | 22 | 249 | 3.2 | 4.8 | 0.00 | 0.00 | 0.00 | 36 | 1006.7 |
| 20260504200123 | 22 | 232 | 4.8 | 4.8 | 0.00 | 0.00 | 0.00 | 35 | 1006.9 |
| 20260504195618 | 22 | 240 | 12.9 | 22.5 | 0.00 | 0.00 | 0.00 | 34 | 1006.8 |
| 20260504195115 | 22 | 148 | 3.2 | 4.8 | 0.00 | 0.00 | 0.00 | 36 | 1007.0 |
| 20260504194612 | 22 | 208 | 1.6 | 1.6 | 0.00 | 0.00 | 0.00 | 37 | 1007.1 |
| 20260504194108 | 21 | 206 | 6.4 | 9.7 | 0.00 | 0.00 | 0.00 | 37 | 1007.1 |
| 20260504193604 | 21 | 231 | 6.4 | 9.7 | 0.00 | 0.00 | 0.00 | 37 | 1007.1 |
| 20260504193103 | 21 | 228 | 4.8 | 8.0 | 0.00 | 0.00 | 0.00 | 39 | 1007.3 |
| 20260504192601 | 21 | 214 | 6.4 | 8.0 | 0.00 | 0.00 | 0.00 | 39 | 1007.2 |
| 20260504192058 | 22 | 254 | 9.7 | 12.9 | 0.00 | 0.00 | 0.00 | 35 | 1007.4 |
| 20260504191556 | 22 | 252 | 8.0 | 9.7 | 0.00 | 0.00 | 0.00 | 36 | 1007.3 |
| 20260504191052 | 21 | 87 | 4.8 | 4.8 | 0.00 | 0.00 | 0.00 | 37 | 1007.3 |
| 20260504190549 | 21 | 224 | 6.4 | 8.0 | 0.00 | 0.00 | 0.00 | 38 | 1007.4 |
| 20260504190045 | 21 | 216 | 11.3 | 16.1 | 0.00 | 0.00 | 0.00 | 37 | 1007.5 |
| 20260504185542 | 21 | 216 | 12.9 | 14.5 | 0.00 | 0.00 | 0.00 | 39 | 1007.6 |
| 20260504185038 | 21 | 215 | 8.0 | 11.3 | 0.00 | 0.00 | 0.00 | 38 | 1007.5 |
| 20260504184534 | 21 | 200 | 8.0 | 9.7 | 0.00 | 0.00 | 0.00 | 39 | 1007.6 |
| 20260504184029 | 21 | 227 | 6.4 | 11.3 | 0.00 | 0.00 | 0.00 | 39 | 1007.6 |
| 20260504183527 | 21 | 187 | 11.3 | 16.1 | 0.00 | 0.00 | 0.00 | 40 | 1007.6 |
| 20260504183025 | 21 | 225 | 8.0 | 11.3 | 0.00 | 0.00 | 0.00 | 39 | 1007.6 |
| 20260504182521 | 20 | 154 | 9.7 | 12.9 | 0.00 | 0.00 | 0.00 | 40 | 1007.8 |
| 20260504182019 | 20 | 231 | 8.0 | 9.7 | 0.00 | 0.00 | 0.00 | 39 | 1008.0 |
| 20260504181516 | 20 | 186 | 1.6 | 1.6 | 0.00 | 0.00 | 0.00 | 43 | 1007.8 |
| 20260504181014 | 20 | 177 | 3.2 | 8.0 | 0.00 | 0.00 | 0.00 | 41 | 1007.7 |
| 20260504180513 | 20 | 210 | 4.8 | 8.0 | 0.00 | 0.00 | 0.00 | 40 | 1007.8 |
| 20260504180011 | 20 | 288 | 4.8 | 8.0 | 0.00 | 0.00 | 0.00 | 41 | 1007.9 |
| 20260504175508 | 20 | 231 | 4.8 | 9.7 | 0.00 | 0.00 | 0.00 | 39 | 1008.2 |
| 20260504175005 | 20 | 181 | 14.5 | 17.7 | 0.00 | 0.00 | 0.00 | 40 | 1008.1 |
| 20260504174503 | 21 | 181 | 4.8 | 4.8 | 0.00 | 0.00 | 0.00 | 39 | 1008.0 |
| 20260504174000 | 20 | 165 | 6.4 | 8.0 | 0.00 | 0.00 | 0.00 | 40 | 1008.0 |
| 20260504173456 | 20 | 211 | 4.8 | 8.0 | 0.00 | 0.00 | 0.00 | 40 | 1008.2 |
| 20260504172954 | 20 | 246 | 9.7 | 11.3 | 0.00 | 0.00 | 0.00 | 40 | 1008.3 |
| 20260504172449 | 20 | 215 | 11.3 | 14.5 | 0.00 | 0.00 | 0.00 | 41 | 1008.3 |
| 20260504171946 | 20 | 222 | 3.2 | 4.8 | 0.00 | 0.00 | 0.00 | 42 | 1008.4 |
| 20260504171443 | 20 | 236 | 17.7 | 20.9 | 0.00 | 0.00 | 0.00 | 40 | 1008.3 |
| 20260504170940 | 20 | 215 | 9.7 | 12.9 | 0.00 | 0.00 | 0.00 | 41 | 1008.1 |
| 20260504170436 | 19 | 256 | 4.8 | 8.0 | 0.00 | 0.00 | 0.00 | 42 | 1008.6 |
| 20260504160356 | 17 | 236 | 6.4 | 8.0 | 0.00 | 0.00 | 0.00 | 42 | 1009.4 |
| 20260504150820 | 16 | 158 | 8.0 | 11.3 | 0.00 | 0.00 | 0.00 | 45 | 1009.7 |
| 20260504150317 | 15 | 209 | 11.3 | 14.5 | 0.00 | 0.00 | 0.00 | 45 | 1009.7 |
| 20260504141247 | 15 | 197 | 3.2 | 4.8 | 0.00 | 0.00 | 0.00 | 46 | 1010.2 |
| 20260504140743 | 15 | 272 | 11.3 | 14.5 | 0.00 | 0.00 | 0.00 | 45 | 1010.3 |
| 20260504140239 | 14 | 225 | 11.3 | 14.5 | 0.00 | 0.00 | 0.00 | 45 | 1010.4 |
| 20260504130708 | 11 | 172 | 8.0 | 12.9 | 0.00 | 0.00 | 0.00 | 53 | 1010.7 |
| 20260504130203 | 10 | 79 | 3.2 | 3.2 | 0.00 | 0.00 | 0.00 | 54 | 1010.8 |
| 20260504120128 | 10 | 240 | 6.4 | 9.7 | 0.00 | 0.00 | 0.00 | 55 | 1011.4 |
| 20260504110555 | 9 | 175 | 6.4 | 8.0 | 0.00 | 0.00 | 0.00 | 55 | 1011.2 |
| 20260504100517 | 7 | 179 | 0.0 | 0.0 | 0.00 | 0.00 | 0.00 | 59 | 1011.1 |
| 20260504081904 | 7 | 291 | 3.2 | 4.8 | 0.00 | 0.00 | 0.00 | 58 | 1011.1 |
| 20260504081401 | 7 | 225 | 1.6 | 1.6 | 0.00 | 0.00 | 0.00 | 58 | 1011.2 |
| 20260504080857 | 7 | 125 | 3.2 | 3.2 | 0.00 | 0.00 | 0.00 | 58 | 1011.1 |
| 20260504080354 | 7 | 166 | 0.0 | 1.6 | 0.00 | 0.00 | 0.00 | 58 | 1011.3 |
| 20260504070321 | 8 | 194 | 0.0 | 1.6 | 0.00 | 0.00 | 0.00 | 56 | 1011.3 |
| 20260504060242 | 8 | 191 | 0.0 | 1.6 | 0.00 | 0.00 | 0.00 | 54 | 1011.1 |
| 20260504050710 | 8 | 265 | 9.7 | 12.9 | 0.00 | 0.00 | 0.00 | 55 | 1011.4 |
| 20260504050206 | 8 | 199 | 3.2 | 3.2 | 0.00 | 0.00 | 0.00 | 55 | 1011.3 |
| 20260504045703 | 8 | 187 | 0.0 | 0.0 | 0.00 | 0.00 | 0.00 | 57 | 1011.4 |
| 20260504045158 | 8 | 194 | 1.6 | 3.2 | 0.00 | 0.00 | 0.00 | 57 | 1011.3 |
| 20260504044656 | 8 | 172 | 1.6 | 1.6 | 0.00 | 0.00 | 0.00 | 56 | 1011.3 |
| 20260504044153 | 9 | 188 | 0.0 | 1.6 | 0.00 | 0.00 | 0.00 | 56 | 1011.0 |
| 20260504043650 | 10 | 187 | 0.0 | 1.6 | 0.00 | 0.00 | 0.00 | 54 | 1011.1 |
| 20260504043147 | 10 | 183 | 0.0 | 1.6 | 0.00 | 0.00 | 0.00 | 53 | 1011.0 |
| 20260504042644 | 10 | 193 | 1.6 | 1.6 | 0.00 | 0.00 | 0.00 | 53 | 1011.2 |
| 20260504042141 | 10 | 181 | 0.0 | 0.0 | 0.00 | 0.00 | 0.00 | 53 | 1011.0 |